Aeroporto :
LOGIN :

Iscrizione | Disclaimer

   EN    FR    IT 

 










Sommario :    VFR   VFR Marginale   IFR   IFR Intensivo   IFR Molto Intensivo
Visibilità : 
Base nubi : 
>= 8 km
>= 3000ft
5 / 8 km
1000 / 3000 ft
1500m / 5 km
500 / 1000 ft
800 / 1500m
200 / 500 ft
< 800m
< 200 ft
Simboli :   Temporali  Nebbia  Neve Forte  Precipitazioni Forti  Vento > 20 kt
SIGMETs :   Varie  Temporali  Ghiacco  Turbolenza  Onda orograficha  Ceneri Vulcaniche






- Altitudine del aeroporto : 38 ft
- Codice IATA : BOH


EGHH - Bournemouth

ULTIMO METAR :
  • 022020Z 19002KT 9999 BKN027 16/12 Q1014

METARs OBSOLETI :
  • 021950Z 14003KT 9999 FEW031 16/11 Q1013
  • 021920Z VRB02KT 9999 FEW027 SCT033 16/11 Q1013
  • 021850Z 19004KT 9999 FEW027 SCT033 16/11 Q1013
  • 021820Z 22003KT 9999 SCT024 SCT030 16/11 Q1013
  • 021750Z 21005KT 9999 SCT024 SCT031 16/11 Q1013

TAF TAF EGHH
Valido dal 02 a 18 ore il 02 a 21 ore UTC


021659Z 0218/0221 20010KT 9999 SCT025
BECMG 0218/0221 14004KT
PROB30
TEMPO 0218/0220 7000 SHRA
ATIS : +44 1202 364 151
Met : +44 1202 364 158 (TAF)



MetMap, La meteo Aeronautica in un colpo d'occhio ! - Copyright ORBIFLY Dicembre 2007 - Disclaimer

ORBIFLY MET'MAP TEAM :

Programmazione e sviluppo : Alexandra Zaïnal
Concezione : Baudouin d'Aumeries
Aiuto per la programmazione : Marc-Olivier Méhu
Supporto tecnico e logistico : Manuel Goepfert
Aiuto per la traduzione : Arnaldo La Scala

Contatto : metmap@orbifly.com




FONTI E CREDITI :

   NOAA